User: anonymous
Location: Mt. Chestnut Observatory
(40.9038°N, 79.9956°W)
Time: 06:07:19
(UTC-04:00)
Language:

Cosmos 2034 Rocket - Orbit

View from above orbital plane
View from above orbital plane
View from above satellite
View from above satellite

Ground track
Ground track

The orbit data is extracted from the following two-line orbital elements,

1 20150U 89059B   14260.19066598  .00000040  00000-0  26195-4 0   279
2 20150 082.9375 118.9131 0028613 203.5839 296.3792 13.75584189262355
Epoch (UTC): 17 September 2014 04:34:33
Eccentricity: 0.0028613
inclination: 82.9375°
perigee height: 958 km
apogee height: 1000 km
right ascension of ascending node: 118.9131°
argument of perigee: 203.5839°
revolutions per day: 13.75584189
mean anomaly at epoch: 296.3792°
orbit number at epoch: 26235

The dashed part of the orbit path shows where the satellite is in the earth's shadow,  

DLR